CAPE
737 1377 1603 1615 1255 1227 1236 1235 1323 1601 1873 2012 2089 2106 2073 1983 1839 1806 1808 1666 1409 985 820 570 453 406 411 393 364 339 333 436 797 511 460 339 276 56 21 44 35 0 79
904 1468 1536 1517 1210 1238 1309 1326 1397 1676 1879 1724 1847 1912 1932 1982 1894 1739 1782 1598 1456 981 803 582 467 332 213 102 57 104 151 332 388 374 116 110 88 82 80 87 26 0 0
1024 1369 1440 1333 1154 1261 1431 1474 1539 1715 1668 1601 1618 1675 1692 1634 1565 1526 1521 1398 1373 1028 837 626 511 300 37 0 2 8 7 26 9 7 151 0 0 14 93 140 111 0 0
1052 1233 1336 1221 1069 1206 1459 1552 1601 1626 1699 1772 1627 1489 1339 1399 1448 1326 1250 1396 1352 1032 945 763 622 285 14 13 38 87 118 96 123 45 0 50 1 34 46 29 42 4 0
1061 1217 1182 1114 953 1089 1463 1652 1580 1689 1744 1798 1730 1437 1306 1296 1347 1248 1339 1365 1311 1017 920 759 433 60 5 35 75 120 76 52 0 0 1 0 9 111 90 55 2 0 0
1091 1144 1096 976 864 1017 1512 1727 1694 1562 1570 1571 1602 1640 1358 1239 1272 1297 1379 1355 1188 680 549 323 101 13 11 22 72 84 48 39 0 0 5 0 14 80 41 0 5 0 21
1013 1026 930 849 800 1000 1547 1723 1552 1390 1350 1381 1478 1590 1565 1347 1263 1354 1356 1416 1237 834 419 234 103 38 30 50 85 47 13 6 0 6 2 1 24 225 13 6 8 2 0
857 894 783 749 758 889 1349 1395 1274 1142 1103 1140 1231 1396 1526 1373 1177 1093 1024 1073 1143 857 536 280 98 46 53 81 79 35 2 30 79 105 94 39 64 390 68 94 288 150 6
727 775 721 699 711 782 994 1023 1006 931 889 904 962 1077 1143 925 877 961 913 961 930 629 427 243 122 73 72 62 41 13 0 138 336 487 161 81 204 580 345 427 313 231 147
626 633 594 655 645 633 649 764 770 733 722 724 748 835 822 694 673 737 690 758 693 747 511 379 229 99 49 133 132 190 316 324 350 420 511 291 391 683 654 493 383 298 266
472 487 571 608 582 486 476 554 538 512 550 588 638 664 609 418 437 443 333 314 540 493 453 337 167 63 73 294 301 363 392 363 378 415 397 300 457 591 764 833 627 634 493
114 379 435 548 494 380 347 353 270 298 372 411 462 469 286 139 125 134 114 137 271 235 196 168 137 79 373 425 366 431 495 510 534 387 248 295 438 648 996 941 616 459 341
0 48 298 395 437 314 252 179 75 139 207 253 304 276 139 26 5 32 5 201 219 177 56 99 219 234 267 362 444 541 439 454 470 310 43 86 225 540 865 1451 1561 1199 692
234 12 39 219 295 256 125 45 8 39 81 105 169 168 77 9 5 320 337 432 383 227 178 201 234 306 361 681 662 609 489 289 78 69 2 0 0 161 354 705 753 396 143
450 325 343 337 109 117 43 3 0 5 19 18 69 102 61 2 79 472 576 578 421 462 273 339 400 632 601 743 588 481 227 177 104 0 0 0 0 78 216 1 107 5 0
620 473 535 725 652 30 20 0 0 0 2 14 19 35 45 40 2 484 881 665 490 805 525 610 778 683 704 547 406 360 93 11 5 0 0 0 0 0 6 0 0 0 0
815 718 781 905 920 438 0 0 0 0 0 0 13 12 44 67 89 465 883 823 542 725 695 688 746 782 597 172 30 10 0 0 0 0 0 0 0 0 0 0 0 0 0
1039 1026 1081 1125 1033 436 0 0 0 7 2 4 24 42 136 281 374 630 972 868 783 752 698 733 735 662 393 45 0 0 0 0 0 0 0 0 0 0 0 0 0 0 0
1227 1223 1219 1171 1175 304 53 66 38 42 47 55 189 614 288 347 647 1029 1182 803 837 796 702 661 601 438 213 24 0 0 0 0 0 0 0 0 0 0 0 0 0 0 0
1223 1291 1317 1232 1228 542 307 334 376 372 335 443 777 1049 442 706 1219 1275 1265 871 729 711 642 557 391 191 45 0 0 0 0 0 0 0 0 0 0 0 0 0 0 0 0
1123 1332 1363 1401 1372 1040 733 748 713 694 706 975 1381 1229 711 805 1108 1199 1158 961 710 495 407 274 161 35 0 0 0 0 0 0 0 0 0 0 0 0 0 0 0 0 0
1003 1082 1304 1362 1390 1314 1122 953 863 832 907 1199 1441 1263 994 942 946 1170 962 869 522 482 351 206 64 0 0 0 0 0 0 0 0 0 0 0 0 0 0 0 0 0 0
854 954 1058 1244 1352 1389 1309 1163 1072 978 994 1311 1344 1354 1194 1011 765 1016 1090 858 650 421 312 136 6 0 0 0 0 0 0 0 0 0 0 0 0 0 0 0 0 0 0
381 677 868 1082 1230 1384 1421 1277 1179 1041 872 993 1337 1362 1194 848 776 1016 1040 839 651 322 204 55 2 0 0 0 0 0 0 0 0 0 0 0 0 0 0 0 0 0 0
0 110 552 885 1108 1183 1355 1292 1238 1136 884 869 1063 1272 1083 986 968 980 933 744 650 230 133 68 1 0 0 0 0 0 0 0 0 0 0 0 0 0 0 0 0 0 0
0 27 489 746 947 1016 1195 1277 1260 1196 921 847 842 1001 796 888 1023 1004 871 705 532 208 107 38 0 0 0 0 0 0 0 0 0 0 0 0 0 0 0 0 0 0 0
CIN
-424 -235 -153 -144 -219 -254 -251 -223 -175 -84 -39 -24 -20 -22 -18 -21 -28 -26 -16 -13 -21 -56 -71 -117 -143 -150 -141 -139 -142 -151 -151 -101 -22 -64 -79 -110 -137 -284 -320 -304 -307 0 -227
-445 -241 -183 -187 -266 -260 -243 -215 -180 -94 -40 -48 -38 -31 -28 -27 -29 -35 -19 -25 -22 -63 -87 -122 -146 -188 -248 -329 -376 -334 -281 -167 -126 -128 -281 -275 -297 -299 -302 -299 -384 0 0
-388 -269 -219 -250 -289 -260 -218 -184 -147 -94 -87 -79 -62 -50 -54 -60 -65 -57 -43 -43 -39 -85 -97 -126 -140 -212 -407 0 -487 -514 -509 -465 -517 -520 -275 0 0 -483 -334 -305 -342 0 0
-394 -308 -256 -280 -308 -269 -217 -176 -139 -114 -93 -74 -78 -87 -110 -96 -84 -82 -76 -51 -55 -97 -99 -111 -128 -233 -533 -544 -470 -389 -354 -394 -374 -493 0 -440 -35 -449 -445 -512 -486 -339 0
-397 -311 -305 -305 -327 -281 -201 -143 -138 -111 -96 -93 -90 -105 -113 -111 -91 -101 -73 -53 -59 -97 -97 -120 -193 -495 -617 -517 -428 -355 -434 -490 -1 0 -149 0 -445 -369 -391 -470 -164 0 0
-374 -304 -308 -332 -342 -287 -179 -109 -111 -134 -127 -132 -126 -92 -105 -112 -103 -85 -69 -67 -74 -139 -170 -267 -476 -635 -652 -586 -477 -452 -479 -506 0 0 -469 0 -414 -396 -452 -15 -575 0 -494
-375 -332 -323 -339 -361 -287 -148 -103 -129 -154 -158 -157 -157 -127 -93 -101 -104 -86 -77 -58 -67 -116 -228 -351 -511 -630 -642 -588 -514 -567 -625 -621 0 -460 -224 -208 -420 -302 -509 -456 -500 -141 0
-421 -356 -353 -343 -348 -307 -185 -168 -186 -197 -194 -204 -187 -161 -121 -121 -133 -114 -117 -105 -83 -114 -185 -331 -510 -575 -571 -554 -558 -640 -374 -615 -386 -355 -363 -418 -392 -227 -421 -340 -199 -293 -244
-435 -377 -355 -339 -340 -314 -262 -256 -244 -242 -236 -239 -238 -217 -191 -211 -204 -170 -154 -119 -109 -162 -244 -360 -483 -538 -546 -561 -586 -668 -83 -331 -220 -155 -318 -383 -360 -150 -198 -132 -171 -223 -275
-438 -402 -390 -356 -351 -354 -346 -317 -306 -302 -292 -282 -271 -249 -249 -268 -256 -222 -215 -177 -174 -146 -214 -268 -371 -493 -567 -329 -340 -304 -216 -196 -199 -173 -126 -209 -249 -123 -101 -144 -169 -227 -229
-460 -446 -404 -383 -392 -412 -398 -367 -359 -358 -334 -318 -292 -274 -275 -323 -304 -290 -314 -324 -213 -216 -232 -284 -413 -512 -458 -197 -193 -155 -136 -146 -142 -141 -151 -182 -193 -116 -61 -46 -76 -92 -126
-593 -484 -464 -422 -430 -453 -437 -422 -447 -420 -381 -358 -336 -318 -360 -406 -408 -409 -435 -425 -323 -351 -376 -396 -419 -453 -138 -114 -133 -92 -66 -59 -59 -134 -209 -172 -182 -78 -33 -37 -68 -113 -133
0 -659 -530 -478 -437 -454 -473 -479 -524 -488 -446 -418 -382 -379 -424 -508 -582 -506 -161 -200 -189 -247 -331 -320 -200 -179 -141 -107 -68 -29 -61 -73 -89 -158 -387 -295 -233 -80 -26 -2 -2 -5 -18
-197 -71 -638 -527 -492 -465 -487 -558 -612 -526 -486 -491 -447 -421 -456 -567 -290 -161 -148 -128 -129 -160 -183 -180 -149 -120 -88 -18 -20 -35 -56 -119 -304 -271 -150 0 0 -228 -114 -29 -11 -65 -171
-196 -191 -207 -183 -476 -518 -530 -243 0 -359 -555 -547 -502 -451 -464 -583 -247 -132 -101 -90 -119 -78 -110 -97 -100 -51 -45 -20 -22 -44 -127 -157 -229 0 0 0 0 -255 -129 -145 -187 -109 0
-180 -181 -180 -181 -172 -514 -581 0 0 0 -251 -552 -531 -493 -452 -297 -91 -123 -67 -87 -99 -28 -48 -36 -29 -30 -27 -41 -53 -51 -191 -344 -109 0 0 0 0 0 -79 0 0 0 0
-192 -196 -189 -179 -168 -189 0 0 0 0 0 -17 -539 -505 -455 -270 -374 -117 -50 -59 -70 -28 -24 -33 -21 -14 -22 -110 -212 -287 0 0 0 0 0 0 0 0 0 0 0 0 0
-237 -249 -245 -227 -201 -201 0 0 0 -709 -121 -305 -547 -446 -411 -321 -183 -113 -41 -37 -41 -33 -30 -27 -19 -11 -31 -153 0 0 0 0 0 0 0 0 0 0 0 0 0 0 0
-353 -322 -272 -275 -272 -280 -75 -594 -577 -565 -568 -502 -251 -189 -299 -304 -143 -63 -27 -36 -25 -21 -27 -26 -21 -18 -46 -132 0 0 0 0 0 0 0 0 0 0 0 0 0 0 0
-360 -356 -351 -278 -264 -308 -526 -465 -423 -403 -407 -293 -206 -152 -232 -204 -79 -39 -16 -19 -19 -16 -15 -10 -13 -35 -93 0 0 0 0 0 0 0 0 0 0 0 0 0 0 0 0
-224 -322 -312 -332 -268 -324 -364 -395 -385 -398 -345 -246 -143 -134 -197 -167 -99 -46 -22 -18 -23 -52 -33 -36 -59 -103 0 0 0 0 0 0 0 0 0 0 0 0 0 0 0 0 0
-198 -320 -312 -348 -321 -344 -331 -392 -373 -351 -319 -238 -147 -128 -137 -146 -124 -68 -62 -34 -61 -32 -36 -51 -82 0 0 0 0 0 0 0 0 0 0 0 0 0 0 0 0 0 0
-142 -189 -330 -377 -374 -401 -348 -309 -295 -252 -248 -194 -185 -150 -159 -140 -152 -78 -51 -46 -43 -71 -66 -82 -108 0 0 0 0 0 0 0 0 0 0 0 0 0 0 0 0 0 0
-147 -93 -211 -422 -385 -443 -360 -305 -299 -354 -366 -384 -247 -195 -181 -171 -139 -74 -54 -57 -58 -104 -101 -99 -14 0 0 0 0 0 0 0 0 0 0 0 0 0 0 0 0 0 0
0 -430 -432 -493 -436 -442 -401 -355 -316 -267 -358 -317 -236 -196 -178 -141 -104 -52 -42 -66 -68 -118 -107 -101 -17 0 0 0 0 0 0 0 0 0 0 0 0 0 0 0 0 0 0
0 -479 -429 -461 -462 -475 -460 -382 -330 -246 -263 -290 -280 -231 -205 -154 -92 -61 -57 -64 -90 -116 -119 -107 0 0 0 0 0 0 0 0 0 0 0 0 0 0 0 0 0 0 0
Wind_Speed
24 33 34 33 30 25 22 19 16 14 14 15 16 15 14 14 14 16 16 15 14 13 13 11 11 10 10 9 7 5 3 1 2 1 3 5 5 nan nan nan nan nan nan
30 35 32 32 32 27 24 20 19 16 15 17 16 13 12 13 14 16 16 14 12 11 11 11 11 11 10 8 nan 4 3 3 4 3 3 4 nan nan nan nan nan nan nan
30 32 28 28 30 28 25 23 21 19 18 18 16 13 12 12 15 15 13 9 7 8 6 5 5 5 nan nan nan nan nan nan nan nan 5 nan nan nan nan 7 6 nan nan
30 27 26 25 28 29 27 23 23 22 20 19 17 16 15 15 14 10 8 6 5 6 6 6 5 3 nan nan nan nan 4 nan 7 nan nan nan nan nan nan nan nan nan nan
25 24 24 25 24 25 26 23 21 22 20 19 18 16 15 14 10 10 8 6 5 5 5 5 5 nan nan nan nan 4 nan nan nan nan nan nan nan 9 nan nan nan nan nan
24 19 21 24 23 22 24 23 20 20 20 19 19 15 13 9 8 9 9 6 4 4 3 2 2 nan nan nan nan nan nan nan nan nan nan nan nan nan nan nan nan nan nan
21 18 19 22 23 22 22 23 19 18 18 17 19 17 13 10 10 8 7 5 3 2 2 3 3 nan nan nan nan nan nan nan nan nan nan nan nan 15 nan nan nan nan nan
25 20 19 21 22 21 22 23 21 17 15 15 15 16 15 10 11 8 6 5 4 4 3 3 nan nan nan nan nan nan nan nan nan 7 nan nan nan 14 nan nan 17 17 nan
23 22 19 17 19 20 20 21 21 18 16 15 14 15 16 14 12 12 9 8 7 6 6 6 4 nan nan nan nan nan nan 9 9 8 10 nan 16 16 17 17 18 18 15
23 23 23 19 16 17 16 20 20 18 16 15 15 14 14 15 14 13 12 11 11 12 11 11 10 nan nan 5 5 8 8 12 12 13 15 17 20 18 17 16 16 18 17
20 23 25 23 20 18 17 18 19 20 16 14 14 15 16 15 15 15 16 15 15 16 15 15 15 nan nan 12 13 10 13 17 17 17 19 21 21 17 15 16 18 16 16
22 19 23 24 21 21 19 18 18 17 14 14 14 15 16 17 18 17 18 19 18 19 19 19 18 nan 19 20 18 15 16 16 18 18 21 19 21 18 18 18 19 18 19
nan nan 17 20 21 21 19 18 nan 17 17 15 16 16 17 nan nan nan nan 22 23 21 nan nan 23 24 23 25 20 18 17 19 18 20 nan nan 20 17 15 19 19 20 22
23 nan nan 17 20 19 17 nan nan nan nan 18 15 16 nan nan nan 18 17 19 22 24 24 24 24 24 22 18 18 20 22 21 nan nan nan nan nan 21 26 30 36 40 40
22 24 24 20 17 18 nan nan nan nan nan nan nan 16 nan nan nan 20 19 20 19 21 22 22 21 21 22 21 26 25 26 26 28 nan nan nan nan nan 41 nan 45 nan nan
24 27 27 26 23 nan nan nan nan nan nan nan nan nan nan nan nan 18 19 21 21 21 21 21 23 26 27 25 29 30 nan nan nan nan nan nan nan nan nan nan nan nan nan
28 30 32 34 31 27 nan nan nan nan nan nan nan nan nan nan nan 20 19 20 20 20 20 23 28 28 28 28 nan nan nan nan nan nan nan nan nan nan nan nan nan nan nan
24 31 35 33 35 32 nan nan nan nan nan nan nan nan 24 26 25 23 22 21 23 23 23 27 29 30 28 nan nan nan nan nan nan nan nan nan nan nan nan nan nan nan nan
23 26 28 30 34 35 nan nan nan nan nan nan 21 22 25 27 27 26 24 23 26 26 29 30 28 28 30 nan nan nan nan nan nan nan nan nan nan nan nan nan nan nan nan
23 22 21 21 26 30 26 24 22 22 24 27 27 26 28 28 29 28 27 28 27 29 29 28 29 29 nan nan nan nan nan nan nan nan nan nan nan nan nan nan nan nan nan
21 19 19 22 21 28 26 24 26 27 26 25 27 29 30 31 30 30 30 31 30 31 29 30 29 nan nan nan nan nan nan nan nan nan nan nan nan nan nan nan nan nan nan
30 28 25 23 27 27 30 28 27 26 28 30 28 28 29 33 34 33 36 34 33 33 32 30 nan nan nan nan nan nan nan nan nan nan nan nan nan nan nan nan nan nan nan
35 36 33 29 27 33 32 33 31 30 30 31 32 31 30 33 36 34 37 38 39 38 33 33 nan nan nan nan nan nan nan nan nan nan nan nan nan nan nan nan nan nan nan
31 35 28 31 34 33 34 33 37 34 33 29 32 35 35 36 37 38 38 39 41 42 40 nan nan nan nan nan nan nan nan nan nan nan nan nan nan nan nan nan nan nan nan
nan 34 34 33 34 32 30 33 34 32 30 32 33 38 40 36 38 39 39 40 42 42 43 nan nan nan nan nan nan nan nan nan nan nan nan nan nan nan nan nan nan nan nan
nan nan 37 39 36 35 31 32 38 39 37 36 37 40 41 39 38 40 43 40 41 45 45 nan nan nan nan nan nan nan nan nan nan nan nan nan nan nan nan nan nan nan nan
Wind_Direction
357 348 346 340 336 338 334 336 333 342 345 334 321 315 310 307 302 304 301 299 294 285 276 272 272 265 260 255 248 236 229 182 135 175 5 350 335 nan nan nan nan nan nan
337 350 345 338 333 335 336 333 331 337 339 331 324 312 306 301 305 308 305 301 299 297 288 280 273 267 260 255 nan 219 193 153 118 85 86 44 nan nan nan nan nan nan nan
335 345 346 337 329 334 334 335 332 331 330 330 325 319 306 309 311 307 311 319 325 328 319 318 291 263 nan nan nan nan nan nan nan nan 112 nan nan nan nan 331 321 nan nan
326 338 344 338 331 336 336 339 338 331 329 330 323 320 320 316 308 306 322 339 360 359 15 18 24 5 nan nan nan nan 150 nan 135 nan nan nan nan nan nan nan nan nan nan
319 333 343 340 334 335 334 337 341 334 325 325 321 321 317 315 310 316 317 319 345 4 37 38 47 nan nan nan nan 334 nan nan nan nan nan nan nan 37 nan nan nan nan nan
318 324 335 339 338 333 330 333 337 337 332 327 320 319 314 310 301 306 306 307 319 330 343 22 110 nan nan nan nan nan nan nan nan nan nan nan nan nan nan nan nan nan nan
311 317 332 337 338 332 325 324 327 332 337 334 324 318 316 312 307 302 306 304 315 338 355 2 15 nan nan nan nan nan nan nan nan nan nan nan nan 356 nan nan nan nan nan
317 324 328 335 336 331 322 316 317 325 333 333 323 313 313 307 302 304 303 299 310 307 308 305 nan nan nan nan nan nan nan nan nan 286 nan nan nan 335 nan nan 324 321 nan
312 323 324 326 330 328 320 313 313 318 328 327 322 315 307 299 292 298 303 302 304 302 307 308 310 nan nan nan nan nan nan 262 283 300 299 nan 321 328 326 328 321 311 310
310 322 328 321 318 319 319 315 315 318 324 323 316 305 295 293 291 291 295 296 297 302 309 305 302 nan nan 273 271 262 269 283 292 293 302 315 328 325 325 328 323 314 310
313 321 326 327 321 315 312 314 315 320 313 310 304 302 284 270 268 273 275 281 287 292 294 293 295 nan nan 291 292 287 269 281 282 289 300 308 316 321 326 315 312 313 309
328 327 324 322 320 313 314 311 307 305 300 286 283 289 285 284 274 269 267 271 279 283 285 286 287 nan 287 290 293 283 283 283 284 287 292 298 316 315 308 310 308 309 305
nan nan 321 314 309 313 310 306 nan 301 296 293 291 286 285 nan nan nan nan 265 268 275 nan nan 282 284 287 293 293 282 277 275 282 284 nan nan 309 297 283 279 296 305 287
340 nan nan 313 307 310 298 nan nan nan nan 298 301 290 nan nan nan 285 278 275 274 273 275 278 281 290 292 289 285 278 273 272 nan nan nan nan nan 289 278 284 284 283 281
344 338 338 325 315 308 nan nan nan nan nan nan nan 295 nan nan nan 282 279 273 272 273 275 279 284 282 285 284 280 279 281 280 278 nan nan nan nan nan 281 nan 280 nan nan
346 350 343 342 333 nan nan nan nan nan nan nan nan nan nan nan nan 284 283 285 284 284 284 283 280 276 279 278 280 278 nan nan nan nan nan nan nan nan nan nan nan nan nan
348 344 351 349 346 338 nan nan nan nan nan nan nan nan nan nan nan 290 284 285 286 286 291 282 272 275 276 278 nan nan nan nan nan nan nan nan nan nan nan nan nan nan nan
338 347 346 342 348 346 nan nan nan nan nan nan nan nan 299 298 295 289 284 286 289 288 281 273 275 277 279 nan nan nan nan nan nan nan nan nan nan nan nan nan nan nan nan
341 342 343 339 338 341 nan nan nan nan nan nan 287 289 297 302 298 291 284 282 284 279 276 279 278 280 276 nan nan nan nan nan nan nan nan nan nan nan nan nan nan nan nan
323 330 335 331 324 324 319 321 325 325 322 312 302 297 297 296 299 296 286 282 278 274 275 279 283 273 nan nan nan nan nan nan nan nan nan nan nan nan nan nan nan nan nan
306 311 322 324 330 314 310 321 329 336 324 318 314 306 301 299 301 296 285 282 280 283 285 282 278 nan nan nan nan nan nan nan nan nan nan nan nan nan nan nan nan nan nan
310 317 318 326 318 323 311 312 318 320 320 314 307 307 302 297 297 294 292 291 288 279 283 284 nan nan nan nan nan nan nan nan nan nan nan nan nan nan nan nan nan nan nan
311 314 320 325 319 323 313 295 295 297 295 301 308 307 304 296 294 295 294 294 291 288 292 290 nan nan nan nan nan nan nan nan nan nan nan nan nan nan nan nan nan nan nan
303 311 315 318 317 319 313 299 319 315 319 313 304 302 304 302 295 289 290 291 291 286 290 nan nan nan nan nan nan nan nan nan nan nan nan nan nan nan nan nan nan nan nan
nan 294 303 303 305 309 313 313 311 315 307 296 295 300 302 300 300 294 286 284 284 282 283 nan nan nan nan nan nan nan nan nan nan nan nan nan nan nan nan nan nan nan nan
nan nan 276 286 296 302 306 306 313 319 310 296 295 291 293 293 295 295 293 287 284 283 284 nan nan nan nan nan nan nan nan nan nan nan nan nan nan nan nan nan nan nan nan